Terug naar catalogus

DELTA 1 DEB

ActiefUNKNOWN
NORAD 7037·DEBRIS·🇺🇸 United States

Gelanceerd Nov 6, 1973 vanaf Vandenberg Space Force Base

Loading…

Volgende Passages (komende 24 uur)

TLE

VersSource: Space-Track

Epoch: Sep 14, 2026, 13:21 UTC

1  7037U 73086AD  26257.55642360 -.00000001  00000-0  46602-3 0  9997
2  7037 101.9934 290.5903 0322257  32.4876 119.3271 11.86626259288609

Volg DELTA 1 DEB in realtime met AllMySat

Download on the App Store